Regional Weather Roundup
Issued by NWS Upton, NY

Current Version | Previous Version | Graphics & Text | Print | Product List | Glossary Off
Versions: 1 2 3 4 5 6 7 8 9 10 11 12 13 14 15 16 17 18 19 20 21 22 23 24 25 26 27 28 29 30 31 32 33 34 35 36 37 38 39 40 41 42 43 44 45 46 47 48 49 50

633
ASUS41 KOKX 232308
RWROKX

REGIONAL WEATHER ROUNDUP
NATIONAL WEATHER SERVICE NEW YORK NY
700 PM EDT WED AUG 23 2017

NOTE: "FAIR" INDICATES FEW OR NO CLOUDS BELOW 12,000 FEET WITH NO
SIGNIFICANT WEATHER AND/OR OBSTRUCTIONS TO VISIBILITY.

NYZ071-072-176-178-NJZ106-104-240000-
NEW YORK CITY METRO AREA

CITY           SKY/WX    TMP DP  RH WIND       PRES   REMARKS
Central Park   CLEAR     78  52  40 VRB3      29.86S
Bronx Bot Gard   N/A     79  52  38 NW7       29.84F
LaGuardia APRT MOCLDY    80  56  43 NW14      29.82S
Kennedy INTL   PTCLDY    80  52  37 NW14      29.83S
Breezy Point     N/A     75 N/A N/A W6          N/A
Newark/Liberty PTCLDY    80  52  37 W10       29.83S
Teterboro      CLEAR     79  53  40 NW8       29.82S
$$

NYZ177-179-078>081-240000-
LONG ISLAND NEW YORK

CITY           SKY/WX    TMP DP  RH WIND       PRES   REMARKS
Jones Beach      N/A     77 N/A N/A NW9G15      N/A
Matinecock PT    N/A     77 N/A N/A NW16        N/A
Farmingdale    PTCLDY    78  53  41 NW8       29.83S
MacArthur/ISP  MOCLDY    78  55  44 NW6       29.82S
Shirley        PTCLDY    78  58  49 W6        29.83R
Mt Sinai Harb    N/A    N/A N/A N/A W2          N/A
Westhampton    PTCLDY    77  54  44 NW6       29.84R
East Hampton   FAIR      75  60  60 CALM      29.81S
Montauk          N/A     76  63  64 VRB6      29.83R
$$

NYZ052-065-067-240000-
HUDSON VALLEY

CITY           SKY/WX    TMP DP  RH WIND       PRES   REMARKS
White Plains   PTCLDY    76  53  44 W9        29.84R
Larchmont Harb   N/A     77 N/A N/A W8G14       N/A
Croton On Huds   N/A     79 N/A N/A NW9         N/A
Newburgh       CLEAR     73  55  53 W12       29.86R
Montgomery     CLEAR     75  53  46 W6        29.84S
Poughkeepsie   CLEAR     75  51  43 NW7       29.82S
Albany         PTCLDY    72  53  51 NW9       29.84R
$$

NJZ001-105-106-008-010-013-015-019>022-104-240000-
NEW JERSEY

CITY           SKY/WX    TMP DP  RH WIND       PRES   REMARKS
Newark/Liberty PTCLDY    80  52  37 W10       29.83S
Teterboro      CLEAR     79  53  40 NW8       29.82S
Caldwell       CLEAR     77  57  50 CALM      29.84S
Somerville     CLEAR     75  61  61 CALM      29.82S
Linden         FAIR      79  51  37 NW8       29.83S
Perth Amboy      N/A     79 N/A N/A NW8         N/A
Sussex         PTCLDY    74  55  51 NW3       29.86R
Andover          N/A     74  55  51 N3        29.86S
Trenton        CLEAR     79  55  43 NW6       29.84S
Millville      CLOUDY    80  64  58 NW3       29.85R
Atlantic City  CLOUDY    79  65  62 NW6       29.84S
Wrightstown    PTCLDY    77  55  46 NW8       29.82S
Toms River     PTCLDY    77  61  57 NW3       29.85S
Belmar         PTCLDY    78  55  44 W7        29.86R
$$

PAZ047>061-062-071-240000-
EASTERN PENNSYLVANIA

CITY           SKY/WX    TMP DP  RH WIND       PRES   REMARKS
Philadelphia   PTCLDY    80  54  40 NW9       29.85S
Allentown      CLEAR     76  51  41 W8        29.86S
Scranton       CLEAR     74  52  46 NW6       29.88S
$$

CTZ002-004>006-009-010-012-RIZ004-006-007-MAZ004-011-015-240000-
SOUTHERN NEW ENGLAND
 IN CT

CITY           SKY/WX    TMP DP  RH WIND       PRES   REMARKS
Bradley INTL   PTCLDY    77  53  43 NW6       29.82R
Hartford       PTCLDY    78  53  41 NW6       29.81R
Danbury        CLEAR     76  51  41 NW7       29.85R
Wtrbury/Oxford PTCLDY    72  55  55 NW5       29.85S
Norwalk Harbor   N/A     77 N/A N/A W10         N/A
Bridgeport     CLEAR     79  53  40 NW8       29.82R
Meriden        CLEAR     76  54  46 NW5       29.82R
New Haven      PTCLDY    77  54  44 NW6       29.82R
Chester        FAIR      75  55  50 CALM      29.83R
Groton         PTCLDY    77  54  44 NW9       29.80R
Wilimantic     CLEAR     76  54  46 NW3       29.82R

 IN RI

CITY           SKY/WX    TMP DP  RH WIND       PRES   REMARKS
Providence     MOCLDY    77  54  44 NW7       29.81R
Block Island   MOCLDY    73  62  68 W6        29.82R
Westerly       MOCLDY    78  53  41 VRB5      29.82R
 IN MA

CITY           SKY/WX    TMP DP  RH WIND       PRES   REMARKS
Boston         PTCLDY    77  52  41 W13       29.79R
Worcester      CLEAR     71  48  43 W6        29.84R
Westfield      CLEAR     76  53  44 NW6       29.82R
Provincetown   MOCLDY    73  59  61 NW5       29.79R
Nantucket      PTCLDY    72  69  90 W10       29.79R
$$

ANZ330-335-338-340-345-350-353-355-240000-
COASTAL MARINE OBSERVATIONS


STATION/POSITION TIME  SKY/WX   TEMP    WIND        PRES    VSBY  WAVE
                                AIR SEA DIR/SP/G                  HT/PER
                 (UTC)          (F)     (DEG/KT/KT) (MB)    (MI)  (FT/S)
NY HARB ENTRANCE 2150            77 75  290/ 12/ 14 1009.5          2/ 9
GREAT SOUTH BAY  2215            78 79  310/  8/ 12   N/A
23 SSW MONTAUK P 2150            74 73              1009.5          4/ 6
15 E BARNEGAT LI 2230               77                N/A           3/ 6
HUDSON CANYON    2150            76 76  320/ 10/ 12 1009.3          4/ 6
KINGS POINT      2236            78 75   20/ 10/ 12 1009.8
EXECUTION ROCKS  NOT AVBL
WESTERN LI SOUND NOT AVBL
CENTRAL LI SOUND NOT AVBL
EASTERN LI SOUND NOT AVBL
ROBBINS REEF     2236                   310/ 10/ 16 1010.6
$$


>>>>>>>>>>>>>>>>>>>>>>>>>>>> KEY <<<<<<<<<<<<<<<<<<<<<<<<<<<
>                                                          <
>     SKY/WX - Sky Condition/Present Weather               <
>     TMP    - Temperature in Fahrenheit                   <
>     DP     - Dew Point in Fahrenheit                     <
>     RH     - Relative Humidity in Percent                <
>     WIND   - Direction (from) and Speed in MPH           <
>     PRES   - Mean Sea Level Pressure (inches of Hg)      <
>     WCI    - Wind Chill Index                            <
>     VSB    - VISIBILITY IN MILES                         <
>     HX     - HEAT INDEX                                  <
>     TC     - TEMPERATURE IN CELSIUS                      <
>     VRB    - VARIABLE WIND DIRECTION                     <
>                                                          <
>>>>>>>>>>>>>>>>>>>>>>>>>>>> KEY <<<<<<<<<<<<<<<<<<<<<<<<<<<




USA.gov is the U.S. government's official web portal to all federal, state and local government web resources and services.